Flag for Canada Weather past 2 weeks in Fort St. John, British Columbia, Canada

Now
72 °F

Partly sunny.


Feels Like: 76 °F
Forecast: 55 / 69 °F
Wind: 17 mph from Southwest

Location: Fort St John

Current Time: Jul 29, 2015 at 3:25:00 PM

Latest Report: Jul 29, 2015 at 2:00 PM


Visibility: 15 mi

Pressure: 30.03 "Hg (27.72 "Hg at 689m altitude)

Humidity: 31%

Dew point: 39 °F

Location of Fort St. JohnLocation

Historic Weather in Fort St. John — Graph

°F

Fort St. John temperature yesterday

Maximum temperature yesterday: 73 °F (at 2:00 PM)
Minimum temperature yesterday: 57 °F (at 1:00 AM)
Average temperature yesterday: 64 °F

Past Weeks' High & Low Weather Summary

 TemperatureHumidityPressure
High82 °F (Jul 18, 1:00 PM)100% (Jul 17, 2:00 AM)30.14 "Hg (Jul 17, 2:00 AM)
Low48 °F (Jul 21, 12:00 AM)26% (Jul 17, 5:00 PM)29.67 "Hg (Jul 22, 3:00 AM)
Average61 °F62%29.86 "Hg
* Reported Jul 14 2:00 PM — Jul 29 2:00 PM, Fort St. John, Weather by CustomWeather, © 2015

Note: Actual official high and low records may vary slightly from our data, if they occured in-between our weather recording intervals... More about our weather records

Advertising

Fort St. John weather history for previous 24 hours

 ConditionsComfort  
Time TempWeatherWind HumidityBarometerVisibility
2:00 PM
Wed, Jul 29
72 °FPartly sunny.17 mph31%30.03 "Hg15 mi
1:00 PM66 °FScattered showers. Broken clouds.9 mph43%30.03 "Hg15 mi
12:50 PM59 °FBroken clouds.14 mph63%30.04 "Hg15 mi
12:00 PM64 °FScattered showers. Partly sunny.15 mph40%30.03 "Hg15 mi
11:00 AM63 °FBroken clouds.14 mph45%30.03 "Hg15 mi
10:00 AM64 °FScattered clouds.16 mph46%30.02 "Hg15 mi
9:00 AM61 °FScattered clouds.17 mph55%30.02 "Hg15 mi
8:00 AM55 °FScattered clouds.16 mph63%30.01 "Hg15 mi
7:00 AM55 °FPartly sunny.12 mph63%30.00 "Hg15 mi
6:00 AM55 °FOvercast.16 mph63%29.99 "Hg15 mi
5:50 AM54 °FOvercast.15 mph72%29.98 "Hg15 mi
5:00 AM57 °FOvercast.17 mph55%29.97 "Hg15 mi
4:00 AM55 °FOvercast.9 mph63%29.96 "Hg15 mi
3:00 AM57 °FOvercast.12 mph59%29.96 "Hg15 mi
2:00 AM57 °FMostly cloudy.15 mph59%29.96 "Hg15 mi
1:00 AM57 °FPartly cloudy.16 mph59%29.96 "Hg15 mi
12:00 AM57 °FPartly cloudy.14 mph59%29.96 "Hg15 mi
11:00 PM
Tue, Jul 28
57 °FPartly cloudy.12 mph59%29.97 "Hg15 mi
10:00 PM61 °FBroken clouds.12 mph52%29.97 "Hg15 mi
9:00 PM63 °FBroken clouds.15 mph49%29.98 "Hg15 mi
8:00 PM66 °FBroken clouds.14 mph43%29.97 "Hg15 mi
7:00 PM66 °FBroken clouds.15 mph43%29.97 "Hg15 mi
6:00 PM68 °FBroken clouds.14 mph38%29.96 "Hg15 mi
5:00 PM70 °FBroken clouds.20 mph33%29.95 "Hg15 mi
4:00 PM72 °FPartly sunny.14 mph33%29.95 "Hg15 mi
3:00 PM73 °FBroken clouds.14 mph31%29.95 "Hg15 mi
Weather by CustomWeather, © 2015

See weather overviewHow to use our weather pages